DW3793 Weather Reports


Display with metric or nautical units.
time (UTC)temp
F
wind
direction
speed
MPH
gust
MPH
rain 1hr
in
rain 24hr
in
rain mn
in
humidity
%
barometer
mb
20260507101547 48 311 1.0 5.0 0.00 0.00 0.00 63 1016.5
20260507100040 49 294 2.0 5.0 0.00 0.00 0.00 62 1016.6
20260507094538 50 312 2.0 4.0 0.00 0.00 0.00 60 1016.6
20260507093034 49 307 2.0 5.0 0.00 0.00 0.00 61 1016.6
20260507091538 50 314 3.0 6.0 0.00 0.00 0.00 58 1016.6
20260507090037 51 308 4.0 8.0 0.00 0.00 0.00 56 1016.6
20260507084534 51 273 2.0 8.0 0.00 0.00 0.00 58 1016.8
20260507083025 52 257 1.0 5.0 0.00 0.00 0.00 56 1016.7
20260507081523 51 225 2.0 5.0 0.00 0.00 0.00 57 1016.6
20260507080018 53 294 3.0 8.0 0.00 0.00 0.00 55 1016.7
20260507074526 53 305 3.0 8.0 0.00 0.00 0.00 54 1016.6
20260507073013 54 305 1.0 6.0 0.00 0.00 0.00 52 1016.5
20260507071511 54 309 2.0 5.0 0.00 0.00 0.00 51 1016.6
20260507070010 59 295 0.0 7.0 0.00 0.00 0.00 43 1016.6
20260507064502 61 171 0.0 4.0 0.00 0.00 0.00 40 1016.7
20260507063100 62 256 2.0 9.0 0.00 0.00 0.00 36 1016.8
20260507061558 62 160 4.0 10.0 0.00 0.00 0.00 37 1016.7
20260507060104 62 259 5.0 8.0 0.00 0.00 0.00 37 1016.5
20260507054557 62 261 1.0 5.0 0.00 0.00 0.00 39 1016.7
20260507053054 63 132 1.0 14.0 0.00 0.00 0.00 37 1016.7
20260507051552 62 223 6.0 11.0 0.00 0.00 0.00 39 1016.7
20260507050052 63 248 1.0 4.0 0.00 0.00 0.00 37 1016.7
20260507044549 64 167 1.0 9.0 0.00 0.00 0.00 37 1016.8
20260507043053 64 117 2.0 12.0 0.00 0.00 0.00 39 1016.8
20260507043048 64 120 2.0 9.0 0.00 0.00 0.00 39 1016.8
20260507041548 64 221 4.0 7.0 0.00 0.00 0.00 38 1016.7
20260507040048 65 236 7.0 15.0 0.00 0.00 0.00 40 1016.4
20260507034554 64 180 4.0 7.0 0.00 0.00 0.00 40 1016.3
20260507033046 64 190 4.0 7.0 0.00 0.00 0.00 42 1016.1
20260507031543 63 294 0.0 3.0 0.00 0.00 0.00 53 1016.0
20260507030043 65 257 1.0 4.0 0.00 0.00 0.00 48 1015.8
20260507024552 65 300 1.0 3.0 0.00 0.00 0.00 52 1015.6
20260507023039 67 296 1.0 2.0 0.00 0.00 0.00 42 1015.5
20260507021546 68 86 2.0 5.0 0.00 0.00 0.00 41 1015.4
20260507020039 69 103 2.0 6.0 0.00 0.00 0.00 41 1015.3
20260507014542 70 140 1.0 3.0 0.00 0.00 0.00 38 1015.3
20260507013036 71 117 2.0 6.0 0.00 0.00 0.00 37 1015.2
20260507011541 71 155 6.0 11.0 0.00 0.00 0.00 36 1015.2
20260507010037 71 121 4.0 13.0 0.00 0.00 0.00 37 1015.1
20260507004532 72 134 6.0 11.0 0.00 0.00 0.00 47 1015.1
20260507003031 72 146 1.0 9.0 0.00 0.00 0.00 53 1014.9
20260507001537 72 125 3.0 10.0 0.00 0.00 0.00 49 1014.7
20260507000031 73 123 6.0 16.0 0.00 0.00 0.00 47 1014.6
20260506234621 74 98 5.0 13.0 0.00 0.00 0.00 45 1014.4
20260506233105 76 81 1.0 8.0 0.00 0.00 0.00 41 1014.3
20260506231558 76 107 1.0 4.0 0.00 0.00 0.00 37 1014.3
20260506230055 77 306 0.0 3.0 0.00 0.00 0.00 36 1014.3
20260506224556 76 261 1.0 4.0 0.00 0.00 0.00 35 1014.4
20260506223059 78 74 1.0 6.0 0.00 0.00 0.00 37 1014.6
20260506221523 77 113 0.0 4.0 0.00 0.00 0.00 35 1014.7
20260506220023 78 78 3.0 10.0 0.00 0.00 0.00 35 1014.7
20260506214520 78 36 4.0 9.0 0.00 0.00 0.00 35 1014.9
20260506213020 77 321 1.0 10.0 0.00 0.00 0.00 35 1015.1
20260506211517 77 66 4.0 10.0 0.00 0.00 0.00 35 1015.3
20260506210016 76 44 5.0 10.0 0.00 0.00 0.00 35 1015.4
20260506204514 76 65 3.0 10.0 0.00 0.00 0.00 37 1015.5
20260506203013 76 335 5.0 12.0 0.00 0.00 0.00 37 1015.7
20260506201512 75 304 6.0 16.0 0.00 0.00 0.00 38 1015.8
20260506200011 74 57 4.0 13.0 0.00 0.00 0.00 38 1015.8
20260506194505 74 70 6.0 12.0 0.00 0.00 0.00 38 1016.2
20260506193002 74 340 3.0 10.0 0.00 0.00 0.00 40 1016.3
20260506191502 73 275 2.0 10.0 0.00 0.00 0.00 40 1016.5
20260506190100 72 54 5.0 10.0 0.00 0.00 0.00 40 1016.7
20260506184556 72 343 3.0 13.0 0.00 0.00 0.00 43 1016.9
20260506183057 72 11 5.0 12.0 0.00 0.00 0.00 40 1016.9
20260506181552 71 321 4.0 12.0 0.00 0.00 0.00 43 1017.0
20260506180051 70 53 5.0 13.0 0.00 0.00 0.00 40 1017.0
20260506174520 71 40 3.0 10.0 0.00 0.00 0.00 42 1016.9
20260506173016 69 83 3.0 10.0 0.00 0.00 0.00 43 1017.0
20260506171512 68 63 3.0 12.0 0.00 0.00 0.00 45 1017.2
20260506170011 67 67 2.0 7.0 0.00 0.00 0.00 47 1017.2
20260506164506 64 154 2.0 5.0 0.00 0.00 0.00 58 1017.3
20260506163008 63 173 0.0 4.0 0.00 0.00 0.00 56 1017.3
20260506161535 61 148 3.0 7.0 0.00 0.00 0.00 62 1017.4
20260506154624 58 164 2.0 5.0 0.00 0.00 0.00 64 1017.4
20260506153054 57 161 1.0 7.0 0.00 0.00 0.00 70 1017.3
20260506151552 56 101 2.0 7.0 0.00 0.00 0.00 65 1017.2
20260506150055 56 94 0.0 2.0 0.00 0.00 0.00 65 1017.1
20260506144600 55 93 0.0 1.0 0.00 0.00 0.00 65 1017.1
20260506144559 55 93 0.0 1.0 0.00 0.00 0.00 66 1017.1
20260506143050 54 96 0.0 2.0 0.00 0.00 0.00 68 1017.0
20260506141538 52 304 0.0 1.0 0.00 0.00 0.00 75 1017.0
20260506140053 48 264 0.0 1.0 0.00 0.00 0.00 81 1017.0
20260506134535 45 308 0.0 3.0 0.00 0.00 0.00 80 1017.0
20260506133031 45 321 0.0 2.0 0.00 0.00 0.00 79 1016.9
20260506131538 43 304 0.0 2.0 0.00 0.00 0.00 82 1016.7
20260506130025 44 279 0.0 1.0 0.00 0.00 0.00 79 1016.6
20260506124523 45 278 0.0 1.0 0.00 0.00 0.00 77 1016.5
20260506123034 44 319 0.0 1.0 0.00 0.00 0.00 80 1016.4
20260506121519 44 271 0.0 1.0 0.00 0.00 0.00 77 1016.4
20260506120048 45 271 0.0 1.0 0.00 0.00 0.00 76 1016.3
20260506114544 46 271 0.0 1.0 0.00 0.00 0.00 74 1016.1
20260506113042 47 271 0.0 0.0 0.00 0.00 0.00 70 1016.2
20260506111538 50 271 0.0 1.0 0.00 0.00 0.00 66 1016.0
20260506110041 50 297 0.0 3.0 0.00 0.00 0.00 66 1015.8
20260506104533 50 255 1.0 3.0 0.00 0.00 0.00 66 1015.8
20260506103029 51 306 1.0 3.0 0.00 0.00 0.00 64 1015.6